Time,TemperatureF,DewpointF,PressureIn,WindDirection,WindDirectionDegrees,WindSpeedMPH,WindSpeedGustMPH,Humidity,HourlyPrecipIn,Conditions,Clouds,dailyrainin,SoftwareType,DateUTC
2013-04-30 00:21:00,82.0,43.0,29.59,WNW,300,25.0,39.0,25,0.00,,,-99.99,,2013-04-30 07:21:00,
2013-04-30 00:31:00,82.0,43.0,29.59,WNW,300,25.0,39.0,25,0.00,,,-99.99,,2013-04-30 07:31:00,
2013-04-30 00:41:00,82.0,43.0,29.59,WNW,300,25.0,39.0,25,0.00,,,-99.99,,2013-04-30 07:41:00,
2013-04-30 01:21:00,80.0,40.0,29.58,WNW,300,28.0,35.0,24,0.00,,,-99.99,,2013-04-30 08:21:00,
2013-04-30 01:32:00,80.0,40.0,29.58,WNW,300,28.0,35.0,24,0.00,,,-99.99,,2013-04-30 08:32:00,
2013-04-30 01:42:00,80.0,40.0,29.58,WNW,300,28.0,35.0,24,0.00,,,-99.99,,2013-04-30 08:42:00,
2013-04-30 01:43:00,78.0,38.0,29.58,NW,310,24.0,31.0,24,0.00,,,-99.99,,2013-04-30 08:43:00,
2013-04-30 02:22:00,78.0,38.0,29.58,NW,310,24.0,31.0,24,0.00,,,-99.99,,2013-04-30 09:22:00,
2013-04-30 02:33:00,78.0,38.0,29.58,NW,310,24.0,31.0,24,0.00,,,-99.99,,2013-04-30 09:33:00,
2013-04-30 04:21:00,74.0,41.0,29.58,WNW,300,17.0,22.0,30,0.00,,,-99.99,,2013-04-30 11:21:00,
2013-04-30 04:31:00,74.0,41.0,29.58,WNW,300,17.0,22.0,30,0.00,,,-99.99,,2013-04-30 11:31:00,
2013-04-30 04:42:00,74.0,41.0,29.58,WNW,300,17.0,22.0,30,0.00,,,-99.99,,2013-04-30 11:42:00,
2013-04-30 08:21:00,76.0,36.0,29.61,NW,320,10.0,14.0,23,0.00,,,-99.99,,2013-04-30 15:21:00,
2013-04-30 08:32:00,76.0,36.0,29.61,NW,320,10.0,14.0,23,0.00,,,-99.99,,2013-04-30 15:32:00,
2013-04-30 08:42:00,76.0,36.0,29.61,NW,320,10.0,14.0,23,0.00,,,-99.99,,2013-04-30 15:42:00,
2013-04-30 09:22:00,80.0,34.0,29.61,NW,310,11.0,18.0,19,0.00,,,-99.99,,2013-04-30 16:22:00,
2013-04-30 09:33:00,80.0,34.0,29.61,NW,310,11.0,18.0,19,0.00,,,-99.99,,2013-04-30 16:33:00,
2013-04-30 09:42:00,80.0,34.0,29.61,NW,310,11.0,18.0,19,0.00,,,-99.99,,2013-04-30 16:42:00,
2013-04-30 10:22:00,84.0,34.0,29.60,NW,310,27.0,40.0,17,0.00,,,-99.99,,2013-04-30 17:22:00,
2013-04-30 10:32:00,84.0,34.0,29.60,NW,310,27.0,40.0,17,0.00,,,-99.99,,2013-04-30 17:32:00,
2013-04-30 10:42:00,84.0,34.0,29.60,NW,310,27.0,40.0,17,0.00,,,-99.99,,2013-04-30 17:42:00,
2013-04-30 11:22:00,85.0,37.0,29.62,NW,310,20.0,34.0,18,0.00,,,-99.99,,2013-04-30 18:22:00,
2013-04-30 11:32:00,85.0,37.0,29.62,NW,310,20.0,34.0,18,0.00,,,-99.99,,2013-04-30 18:32:00,
2013-04-30 11:41:00,85.0,37.0,29.62,NW,310,20.0,34.0,18,0.00,,,-99.99,,2013-04-30 18:41:00,
2013-04-30 12:21:00,88.0,38.0,29.61,NW,310,22.0,38.0,17,0.00,,,-99.99,,2013-04-30 19:21:00,
2013-04-30 12:32:00,88.0,38.0,29.61,NW,310,22.0,38.0,17,0.00,,,-99.99,,2013-04-30 19:32:00,
2013-04-30 12:42:00,88.0,38.0,29.61,NW,310,22.0,38.0,17,0.00,,,-99.99,,2013-04-30 19:42:00,
2013-04-30 13:21:00,90.0,36.0,29.61,WNW,300,26.0,37.0,15,0.00,,,-99.99,,2013-04-30 20:21:00,
2013-04-30 13:32:00,90.0,36.0,29.61,WNW,300,26.0,37.0,15,0.00,,,-99.99,,2013-04-30 20:32:00,
2013-04-30 13:42:00,90.0,36.0,29.61,WNW,300,26.0,37.0,15,0.00,,,-99.99,,2013-04-30 20:42:00,
2013-04-30 14:22:00,92.0,39.0,29.61,WNW,300,31.0,42.0,16,0.00,,,-99.99,,2013-04-30 21:22:00,
2013-04-30 14:32:00,92.0,39.0,29.61,WNW,300,31.0,42.0,16,0.00,,,-99.99,,2013-04-30 21:32:00,
2013-04-30 14:42:00,92.0,39.0,29.61,WNW,300,31.0,42.0,16,0.00,,,-99.99,,2013-04-30 21:42:00,
2013-04-30 15:22:00,91.0,40.0,29.59,WNW,290,26.0,45.0,17,0.00,,,-99.99,,2013-04-30 22:22:00,
2013-04-30 15:32:00,91.0,40.0,29.59,WNW,290,26.0,45.0,17,0.00,,,-99.99,,2013-04-30 22:32:00,
2013-04-30 15:41:00,91.0,40.0,29.59,WNW,290,26.0,45.0,17,0.00,,,-99.99,,2013-04-30 22:41:00,
2013-04-30 16:21:00,90.0,41.0,29.57,WNW,300,36.0,50.0,18,0.00,,,-99.99,,2013-04-30 23:21:00,
2013-04-30 16:32:00,90.0,41.0,29.57,WNW,300,36.0,50.0,18,0.00,,,-99.99,,2013-04-30 23:32:00,
2013-04-30 16:42:00,90.0,41.0,29.57,WNW,300,36.0,50.0,18,0.00,,,-99.99,,2013-04-30 23:42:00,
2013-04-30 18:21:00,85.0,48.0,29.57,NW,310,45.0,60.0,28,0.00,,,-99.99,,2013-05-01 01:21:00,
2013-04-30 18:31:00,85.0,48.0,29.57,NW,310,45.0,60.0,28,0.00,,,-99.99,,2013-05-01 01:31:00,
2013-04-30 18:41:00,85.0,48.0,29.57,NW,310,45.0,60.0,28,0.00,,,-99.99,,2013-05-01 01:41:00,
2013-04-30 19:21:00,81.0,49.0,29.57,NW,310,25.0,51.0,33,0.00,,,-99.99,,2013-05-01 02:21:00,
2013-04-30 19:32:00,81.0,49.0,29.57,NW,310,25.0,51.0,33,0.00,,,-99.99,,2013-05-01 02:32:00,
2013-04-30 19:42:00,81.0,49.0,29.57,NW,310,25.0,51.0,33,0.00,,,-99.99,,2013-05-01 02:42:00,
2013-04-30 20:21:00,77.0,50.0,29.59,NW,320,38.0,48.0,39,0.00,,,-99.99,,2013-05-01 03:21:00,
2013-04-30 20:33:00,77.0,50.0,29.59,NW,320,38.0,48.0,39,0.00,,,-99.99,,2013-05-01 03:33:00,
2013-04-30 20:42:00,77.0,50.0,29.59,NW,320,38.0,48.0,39,0.00,,,-99.99,,2013-05-01 03:42:00,
2013-04-30 21:22:00,75.0,50.0,29.60,NW,320,34.0,44.0,42,0.00,,,-99.99,,2013-05-01 04:22:00,
2013-04-30 21:32:00,75.0,50.0,29.60,NW,320,34.0,44.0,42,0.00,,,-99.99,,2013-05-01 04:32:00,
2013-04-30 22:21:00,71.0,50.0,29.62,WNW,300,14.0,24.0,48,0.00,,,-99.99,,2013-05-01 05:21:00,
2013-04-30 22:32:00,71.0,50.0,29.62,WNW,300,14.0,24.0,48,0.00,,,-99.99,,2013-05-01 05:32:00,
2013-04-30 22:41:00,71.0,50.0,29.62,WNW,300,14.0,24.0,48,0.00,,,-99.99,,2013-05-01 05:41:00,
2013-04-30 23:22:00,66.0,51.0,29.63,WNW,300,22.0,30.0,58,0.00,,,-99.99,,2013-05-01 06:22:00,
2013-04-30 23:32:00,66.0,51.0,29.63,WNW,300,22.0,30.0,58,0.00,,,-99.99,,2013-05-01 06:32:00,